Change the Weather History Date:

Tuesday, March 5, 2013

  Actual Average (KCAK) Record (KCAK)
Temperature  
Mean Temperature 31 °F 34 °F  
Max Temperature 43 °F 42 °F 77 °F (1983)
Min Temperature 19 °F 25 °F 4 °F (2015)
Degree Days  
Heating Degree Days 34 31  
Month to date heating degree days 160  
Since 1 July heating degree days 4704  
Cooling Degree Days 0 0  
Month to date cooling degree days 0  
Year to date cooling degree days 0  
Moisture  
Dew Point 18 °F    
Average Humidity 59    
Maximum Humidity 86    
Minimum Humidity 35    
Precipitation  
Precipitation 0.00 in 0.09 in 0.89 in (2011)
Month to date precipitation 0.43  
Year to date precipitation 5.35  
Snow  
Snow 0.00 in 0.30 in - ()
Month to date snowfall 1.7  
Since 1 July snowfall 38.2  
Snow Depth -    
Sea Level Pressure  
Sea Level Pressure 29.91 in    
Wind  
Wind Speed 4 mph (East)    
Max Wind Speed 15 mph    
Max Gust Speed 24 mph    
Visibility 10 miles    
Events      
T = Trace of Precipitation, MM = Missing Value Source: NWS Daily Summary

Daily Weather History Graph

Daily Weather History Graph

Search for Another Location

Airport or City:

Trip Planner

Search our weather history database for the weather conditions in past years. The results will help you decide how hot, cold, wet, or windy it might be!

Date:

Astronomy

Mar. 05, 2013 Rise Set
Actual Time 6:53 AM EST 6:21 PM EST
Civil Twilight 6:25 AM EST 6:49 PM EST
Nautical Twilight 5:54 AM EST 7:21 PM EST
Astronomical Twilight 5:22 AM EST 7:53 PM EST
Moon 2:06 AM EST (3/5) 11:57 AM EST (3/5)
Length of Visible Light 12h 23m
Length of Day
11h 28m
Last Quarter, 41% of the Moon is Illuminated
Mar 5
Last Quarter
Mar 11
New
Mar 19
First Quarter
Mar 27
Full
Apr 3
Last Quarter

Hourly Weather History & Observations

Time (EST) Temp. Windchill Dew Point Humidity Pressure Visibility Wind Dir Wind Speed Gust Speed Precip Events Conditions
12:54 AM 23.0 °F - 16.0 °F 74% 30.11 in 10.0 mi Calm Calm - N/A   Clear
2:54 AM 19.4 °F - 15.8 °F 86% 30.06 in 10.0 mi Calm Calm - N/A   Clear
3:54 AM 19.0 °F 10.0 °F 15.1 °F 85% 30.08 in 9.0 mi ENE 6.9 mph - N/A   Clear
4:54 AM 19.9 °F - 14.0 °F 78% 30.08 in 10.0 mi Calm Calm - N/A   Clear
5:54 AM 21.9 °F - 15.1 °F 75% 30.08 in 10.0 mi Calm Calm - N/A   Clear
6:54 AM 21.0 °F - 15.1 °F 78% 30.07 in 10.0 mi Calm Calm - N/A   Clear
7:54 AM 21.2 °F 14.9 °F 17.6 °F 86% 30.02 in 10.0 mi ESE 4.6 mph - N/A   Clear
8:54 AM 25.0 °F 19.3 °F 19.0 °F 78% 30.05 in 10.0 mi SE 4.6 mph - N/A   Clear
9:54 AM 28.0 °F 22.8 °F 19.9 °F 72% 30.04 in 10.0 mi SE 4.6 mph - N/A   Clear
10:54 AM 30.9 °F 25.2 °F 19.9 °F 64% 30.01 in 10.0 mi East 5.8 mph - N/A   Clear
11:54 AM 34.0 °F 28.8 °F 19.9 °F 56% 29.99 in 10.0 mi Variable 5.8 mph - N/A   Clear
12:54 PM 37.0 °F 30.4 °F 21.0 °F 52% 29.95 in 10.0 mi ESE 9.2 mph - N/A   Clear
1:54 PM 39.9 °F 33.4 °F 19.9 °F 45% 29.89 in 10.0 mi ENE 10.4 mph 16.1 mph N/A   Clear
2:54 PM 41.0 °F 35.2 °F 17.1 °F 38% 29.85 in 10.0 mi East 9.2 mph 18.4 mph N/A   Clear
3:54 PM 43.0 °F 38.2 °F 18.0 °F 37% 29.83 in 10.0 mi East 8.1 mph - N/A   Clear
4:54 PM 41.0 °F 36.4 °F 15.1 °F 35% 29.80 in 10.0 mi Variable 6.9 mph - N/A   Scattered Clouds
5:54 PM 39.9 °F 33.9 °F 16.0 °F 38% 29.77 in 10.0 mi ENE 9.2 mph - N/A   Overcast
6:54 PM 39.0 °F 33.4 °F 16.0 °F 39% 29.76 in 10.0 mi East 8.1 mph - N/A   Overcast
7:54 PM 39.0 °F 31.8 °F 18.0 °F 43% 29.72 in 10.0 mi ENE 11.5 mph 23.0 mph N/A   Overcast
8:54 PM 37.0 °F 28.1 °F 19.0 °F 48% 29.68 in 10.0 mi ENE 15.0 mph 24.2 mph N/A   Overcast
9:54 PM 37.0 °F 29.8 °F 21.0 °F 52% 29.67 in 10.0 mi ENE 10.4 mph 19.6 mph N/A   Overcast
10:54 PM 37.0 °F 29.3 °F 21.0 °F 52% 29.66 in 10.0 mi ENE 11.5 mph 19.6 mph N/A   Overcast
11:54 PM 37.0 °F 30.4 °F 21.9 °F 54% 29.65 in 10.0 mi East 9.2 mph - N/A   Overcast